Mattoon, IL

3:44 AM CST on November 22, 2019 (GMT -0600)
Coles County Memorial

Weather History for KMTO - September, 2019

Change the Weather History Date:

Tuesday, September 3, 2019

  Actual Average Record
Temperature  
Mean Temperature 74 °F 71 °F  
Max Temperature 85 °F 83 °F 96 °F (1953)
Min Temperature 63 °F 60 °F 45 °F (1952)
Degree Days  
Heating Degree Days 0 0  
Month to date heating degree days 0 0  
Since 1 July heating degree days 0 5  
Cooling Degree Days 9 7  
Month to date cooling degree days 23 21  
Year to date cooling degree days 1008 941  
Growing Degree Days 24 (Base 50)    
Moisture  
Dew Point 68 °F    
Average Humidity 79    
Maximum Humidity 93    
Minimum Humidity 65    
Precipitation  
Precipitation 0.00 in 0.12 in 0.79 in (1962)
Month to date precipitation 0.44 0.38  
Year to date precipitation 25.57 26.28  
Sea Level Pressure  
Sea Level Pressure 29.97 in    
Wind  
Wind Speed 8 mph (South)    
Max Wind Speed 18 mph    
Max Gust Speed 26 mph    
Visibility 10 miles    
Events      
T = Trace of Precipitation, MM = Missing Value Source: NWS Daily Summary

Daily Weather History Graph

Daily Weather History Graph

Search for Another Location

Airport or City:

Astronomy

Sep. 03, 2019 Rise Set
Actual Time 6:23 AM CDT 7:21 PM CDT
Civil Twilight 5:55 AM CDT 7:48 PM CDT
Nautical Twilight 5:22 AM CDT 8:21 PM CDT
Astronomical Twilight 4:49 AM CDT 8:54 PM CDT
Moon 11:14 AM CDT (9/3) 10:19 PM CDT (9/3)
Length of Visible Light 13h 53m
Length of Day
12h 58m
Waxing Crescent, 25% of the Moon is Illuminated
Sep 3
Waxing Crescent
Sep 5
First Quarter
Sep 13
Full
Sep 21
Last Quarter
Sep 28
New

Hourly Weather History & Observations

Time (CDT) Temp. Heat Index Dew Point Humidity Pressure Visibility Wind Dir Wind Speed Gust Speed Precip Events Conditions
12:53 AM 66.0 °F - 63.0 °F 90% 30.04 in 10.0 mi SSW 3.5 mph - N/A   Clear
1:53 AM 64.0 °F - 62.1 °F 93% 30.03 in 10.0 mi South 5.8 mph - N/A   Clear
2:53 AM 64.0 °F - 62.1 °F 93% 30.02 in 9.0 mi South 4.6 mph - N/A   Clear
3:53 AM 66.0 °F - 63.0 °F 90% 30.02 in 10.0 mi South 5.8 mph - N/A   Clear
4:53 AM 64.9 °F - 63.0 °F 93% 30.00 in 8.0 mi South 6.9 mph - N/A   Clear
5:53 AM 64.9 °F - 63.0 °F 93% 30.01 in 9.0 mi South 8.1 mph - N/A   Clear
6:53 AM 64.9 °F - 63.0 °F 93% 30.02 in 8.0 mi South 8.1 mph - N/A   Clear
7:53 AM 66.9 °F - 64.0 °F 90% 30.02 in 10.0 mi South 10.4 mph - N/A   Clear
8:53 AM 70.0 °F - 64.9 °F 84% 30.02 in 10.0 mi SSE 8.1 mph - N/A   Mostly Cloudy
9:53 AM 73.9 °F - 66.9 °F 79% 30.03 in 10.0 mi SSE 8.1 mph - N/A   Scattered Clouds
10:53 AM 77.0 °F - 68.0 °F 74% 30.01 in 10.0 mi South 11.5 mph - N/A   Clear
11:53 AM 79.0 °F - 69.1 °F 72% 30.00 in 10.0 mi South 13.8 mph - N/A   Clear
12:53 PM 81.0 °F 84.9 °F 71.1 °F 72% 29.98 in 10.0 mi South 11.5 mph 20.7 mph N/A   Clear
1:53 PM 82.9 °F 88.0 °F 72.0 °F 69% 29.95 in 10.0 mi South 11.5 mph 19.6 mph N/A   Clear
2:53 PM 84.0 °F 89.6 °F 72.0 °F 67% 29.92 in 10.0 mi South 16.1 mph - N/A   Clear
3:53 PM 84.0 °F 89.6 °F 72.0 °F 67% 29.93 in 10.0 mi SSW 13.8 mph 24.2 mph N/A   Clear
4:53 PM 84.0 °F 90.2 °F 73.0 °F 69% 29.93 in 10.0 mi SSW 9.2 mph - N/A   Partly Cloudy
5:53 PM 82.9 °F 88.8 °F 73.0 °F 72% 29.93 in 10.0 mi SW 6.9 mph - N/A   Mostly Cloudy
6:53 PM 81.0 °F 85.8 °F 73.0 °F 77% 29.88 in 10.0 mi SSW 8.1 mph - N/A   Clear
7:53 PM 79.0 °F - 72.0 °F 79% 29.89 in 10.0 mi SSW 8.1 mph - N/A   Clear
8:53 PM 77.0 °F - 72.0 °F 84% 29.90 in 10.0 mi SSW 4.6 mph - N/A   Clear
9:53 PM 75.9 °F - 72.0 °F 87% 29.90 in 10.0 mi SSW 6.9 mph - N/A   Clear
11:53 PM 75.0 °F - 72.0 °F 90% 29.94 in 8.0 mi SW 4.6 mph - N/A   Scattered Clouds